Location: Juzet
(42.9779°N, 0.7597°E)
Time: 08:34:51
(UTC+00:00)

IRAS Rocket - Pass Details

Date: 14 July 2020
Orbit: 848 x 877 km, 100.1° (Epoch: 04 August)

Event Time Altitude Azimuth Distance (km) Brightness Sun altitude
Exits shadow 01:54:11 40° 215° (SW) 1,224 4.5 -20.5°
Maximum altitude 01:55:36 50° 258° (WSW) 1,070 4.4 -20.4°
Drops below altitude 10° 02:00:57 10° 334° (NNW) 2,487 7.1 -19.9°
Sets 02:03:24 0° 340° (NNW) 3,430 8.0 -19.7°
